Location: Unspecified
(0.0000°N, 0.0000°E)
Time: 05:44:30
(UTC+00:00)

Hubble Space Telescope - Pass Details

Date: 15 October 2017
Orbit: 537 x 541 km, 28.5° (Epoch: 16 October)

Event Time Altitude Azimuth Distance (km) Brightness Sun altitude
Exits shadow 05:10:59 - 316° (NW) 2,169 3.4 -8.6°
Reaches altitude 10° 05:12:02 10° 321° (NW) 1,782 3.0 -8.3°
Maximum altitude 05:15:53 38° 30° (NNE) 826 1.9 -7.4°
Drops below altitude 10° 05:19:45 10° 99° (E) 1,788 5.3 -6.4°
Sets 05:22:08 0° 107° (ESE) 2,681 6.7 -5.9°
